Weather History for KFET - January, 2014

Change the Weather History Date:

Wednesday, January 8, 2014

  Actual Average Record
Temperature  
Mean Temperature 17 °F -  
Max Temperature 21 °F 28 °F 66 °F (2003)
Min Temperature 13 °F 8 °F -13 °F (1970)
Degree Days  
Heating Degree Days 48    
Moisture  
Dew Point 11 °F    
Average Humidity 73    
Maximum Humidity 86    
Minimum Humidity 64    
Precipitation  
Precipitation 0.03 in - - ()
Sea Level Pressure  
Sea Level Pressure 30.33 in    
Wind  
Wind Speed 4 mph (ENE)    
Max Wind Speed 9 mph    
Max Gust Speed -    
Visibility 10 miles    
Events Snow    
Averages and records for this station are not official NWS values.
T = Trace of Precipitation, MM = Missing Value Source: NWS Daily Summary

Daily Weather History Graph

Daily Weather History Graph

Search for Another Location

Airport or City:

Trip Planner

Search our weather history database for the weather conditions in past years. The results will help you decide how hot, cold, wet, or windy it might be!

Date:

Astronomy

Jan. 08, 2014 Rise Set
Actual Time 7:52 AM CST 5:13 PM CST
Civil Twilight 7:21 AM CST 5:44 PM CST
Nautical Twilight 6:46 AM CST 6:19 PM CST
Astronomical Twilight 6:13 AM CST 6:52 PM CST
Moon 12:09 PM CST (1/8) 12:56 AM CST (1/8)
Length of Visible Light 10h 23m
Length of Day
9h 21m
First Quarter, 56% of the Moon is Illuminated
Jan 8
First Quarter
Jan 15
Full
Jan 23
Last Quarter
Jan 30
New
Feb 6
First Quarter

Hourly Weather History & Observations

Time (CST) Temp. Windchill Dew Point Humidity Pressure Visibility Wind Dir Wind Speed Gust Speed Precip Events Conditions
12:15 AM 18.0 °F 11.1 °F 9.3 °F 69% 30.24 in 10.0 mi NNW 4.6 mph - N/A   Clear
12:35 AM 17.6 °F - 9.5 °F 71% 30.24 in 10.0 mi Calm Calm - N/A   Clear
12:55 AM 17.6 °F 12.3 °F 9.9 °F 72% 30.25 in 10.0 mi NNW 3.5 mph - N/A   Clear
1:15 AM 17.6 °F 12.3 °F 9.9 °F 72% 30.25 in 10.0 mi NW 3.5 mph - N/A   Clear
1:35 AM 17.2 °F 11.9 °F 11.3 °F 78% 30.26 in 5.0 mi NNW 3.5 mph - N/A Snow Light Snow
1:55 AM 16.7 °F - 12.6 °F 84% 30.26 in 5.0 mi Calm Calm - N/A Snow Light Snow
2:15 AM 16.7 °F - 13.1 °F 86% 30.26 in 10.0 mi Calm Calm - N/A   Scattered Clouds
2:35 AM 17.1 °F - 12.7 °F 83% 30.26 in 10.0 mi Calm Calm - N/A   Clear
2:55 AM 17.2 °F 11.9 °F 12.2 °F 81% 30.26 in 10.0 mi NNW 3.5 mph - N/A   Clear
3:15 AM 17.2 °F - 12.0 °F 80% 30.26 in 10.0 mi Calm Calm - N/A   Clear
3:35 AM 17.2 °F 8.9 °F 11.1 °F 77% 30.26 in 10.0 mi North 5.8 mph - N/A   Clear
3:55 AM 16.7 °F 11.2 °F 10.8 °F 77% 30.27 in 10.0 mi North 3.5 mph - N/A   Clear
4:15 AM 16.2 °F 9.0 °F 10.9 °F 80% 30.27 in 10.0 mi North 4.6 mph - N/A   Clear
4:35 AM 15.8 °F 10.2 °F 10.4 °F 79% 30.27 in 10.0 mi North 3.5 mph - N/A   Clear
4:55 AM 15.3 °F 7.9 °F 10.4 °F 81% 30.28 in 10.0 mi North 4.6 mph - N/A   Clear
5:15 AM 14.7 °F 9.0 °F 10.0 °F 82% 30.28 in 10.0 mi North 3.5 mph - N/A   Clear
5:35 AM 14.4 °F 5.5 °F 9.5 °F 81% 30.28 in 10.0 mi North 5.8 mph - N/A   Clear
5:55 AM 14.4 °F 6.9 °F 8.4 °F 77% 30.29 in 10.0 mi NNE 4.6 mph - N/A   Clear
6:15 AM 14.0 °F 8.2 °F 8.1 °F 77% 30.29 in 10.0 mi NNE 3.5 mph - N/A   Clear
6:35 AM 13.8 °F 6.2 °F 7.7 °F 77% 30.29 in 10.0 mi NE 4.6 mph - N/A   Clear
6:55 AM 13.8 °F - 7.7 °F 77% 30.30 in 10.0 mi Calm Calm - N/A   Clear
7:15 AM 13.8 °F - 7.9 °F 77% 30.31 in 10.0 mi Calm Calm - N/A   Clear
7:35 AM 13.8 °F 8.0 °F 8.1 °F 78% 30.32 in 10.0 mi NNE 3.5 mph - N/A   Clear
7:55 AM 13.8 °F 6.2 °F 8.2 °F 78% 30.32 in 10.0 mi North 4.6 mph - N/A   Clear
8:15 AM 13.8 °F 8.0 °F 8.4 °F 79% 30.33 in 10.0 mi NNE 3.5 mph - N/A   Clear
8:35 AM 14.0 °F 8.2 °F 8.6 °F 79% 30.34 in 10.0 mi NNE 3.5 mph - 0.03 in   Clear
8:55 AM 14.5 °F 7.1 °F 9.0 °F 79% 30.35 in 10.0 mi NNE 4.6 mph - 0.03 in   Clear
9:15 AM 15.1 °F 9.4 °F 9.3 °F 78% 30.36 in 10.0 mi NNE 3.5 mph - N/A   Clear
9:35 AM 15.4 °F - 9.3 °F 77% 30.36 in 10.0 mi Calm Calm - N/A   Clear
9:55 AM 15.6 °F 10.0 °F 9.3 °F 76% 30.38 in 10.0 mi NNE 3.5 mph - N/A   Clear
10:15 AM 15.8 °F 8.6 °F 9.1 °F 75% 30.38 in 10.0 mi NE 4.6 mph - N/A   Clear
10:35 AM 16.3 °F 7.8 °F 9.5 °F 74% 30.39 in 10.0 mi NNE 5.8 mph - N/A   Clear
10:55 AM 16.5 °F 9.4 °F 9.1 °F 73% 30.39 in 10.0 mi NE 4.6 mph - N/A   Clear
11:15 AM 17.2 °F 8.9 °F 9.3 °F 71% 30.39 in 10.0 mi ENE 5.8 mph - N/A   Clear
11:35 AM 17.8 °F 10.9 °F 9.7 °F 71% 30.39 in 10.0 mi East 4.6 mph - N/A   Clear
11:55 AM 18.1 °F 11.3 °F 9.7 °F 70% 30.38 in 10.0 mi ENE 4.6 mph - N/A   Clear
12:15 PM 18.5 °F 10.4 °F 9.7 °F 68% 30.37 in 10.0 mi East 5.8 mph - N/A   Clear
12:35 PM 18.9 °F 10.8 °F 10.4 °F 70% 30.36 in 10.0 mi NE 5.8 mph - N/A   Scattered Clouds
12:55 PM 19.6 °F 10.6 °F 10.6 °F 68% 30.36 in 10.0 mi ENE 6.9 mph - N/A   Overcast
1:15 PM 20.7 °F 11.0 °F 10.8 °F 66% 30.34 in 10.0 mi ENE 8.1 mph - N/A   Mostly Cloudy
1:35 PM 20.3 °F 11.5 °F 10.4 °F 66% 30.34 in 10.0 mi East 6.9 mph - N/A   Mostly Cloudy
1:55 PM 20.5 °F 14.0 °F 10.6 °F 66% 30.34 in 10.0 mi ENE 4.6 mph - N/A   Overcast
2:15 PM 20.8 °F 13.2 °F 10.9 °F 66% 30.34 in 10.0 mi NE 5.8 mph - N/A   Overcast
2:35 PM 20.8 °F 14.4 °F 10.9 °F 66% 30.34 in 10.0 mi East 4.6 mph - N/A   Overcast
2:55 PM 21.2 °F 14.9 °F 11.3 °F 66% 30.34 in 10.0 mi East 4.6 mph - N/A   Overcast
3:15 PM 21.0 °F 14.6 °F 10.6 °F 64% 30.35 in 10.0 mi East 4.6 mph - N/A   Overcast
3:35 PM 21.2 °F 14.9 °F 11.1 °F 65% 30.35 in 10.0 mi ENE 4.6 mph - N/A   Overcast
3:55 PM 21.0 °F 12.4 °F 10.9 °F 65% 30.35 in 10.0 mi East 6.9 mph - N/A   Overcast
4:15 PM 21.2 °F 13.6 °F 11.3 °F 66% 30.35 in 10.0 mi East 5.8 mph - N/A   Overcast
4:35 PM 21.0 °F 12.4 °F 11.1 °F 66% 30.35 in 10.0 mi East 6.9 mph - N/A   Overcast
4:55 PM 20.8 °F 12.1 °F 11.5 °F 67% 30.35 in 10.0 mi East 6.9 mph - N/A   Overcast
5:15 PM 20.7 °F 11.0 °F 11.3 °F 67% 30.35 in 10.0 mi East 8.1 mph - N/A   Overcast
5:35 PM 20.3 °F 11.5 °F 11.3 °F 68% 30.35 in 10.0 mi East 6.9 mph - N/A   Overcast
5:55 PM 20.3 °F 11.5 °F 11.3 °F 68% 30.35 in 10.0 mi East 6.9 mph - N/A   Overcast
6:15 PM 20.1 °F 11.3 °F 11.7 °F 70% 30.35 in 10.0 mi ENE 6.9 mph - N/A   Overcast
6:35 PM 19.9 °F 11.1 °F 11.8 °F 71% 30.35 in 10.0 mi East 6.9 mph - N/A   Overcast
6:55 PM 19.8 °F 9.9 °F 10.9 °F 69% 30.36 in 10.0 mi East 8.1 mph - N/A   Overcast
7:15 PM 19.8 °F 9.9 °F 10.8 °F 68% 30.36 in 10.0 mi East 8.1 mph - N/A   Overcast
7:35 PM 19.8 °F 9.1 °F 11.3 °F 70% 30.36 in 10.0 mi East 9.2 mph - N/A   Overcast
7:55 PM 19.8 °F 9.1 °F 11.5 °F 70% 30.36 in 10.0 mi East 9.2 mph - N/A   Overcast
8:15 PM 19.6 °F 10.6 °F 11.7 °F 71% 30.36 in 10.0 mi ESE 6.9 mph - N/A   Overcast
8:35 PM 19.4 °F 8.6 °F 11.7 °F 72% 30.36 in 10.0 mi East 9.2 mph - N/A   Overcast
8:55 PM 19.4 °F 8.6 °F 12.0 °F 73% 30.36 in 10.0 mi East 9.2 mph - N/A   Overcast
9:15 PM 19.4 °F 9.5 °F 11.8 °F 72% 30.36 in 10.0 mi ESE 8.1 mph - N/A   Overcast
9:35 PM 19.4 °F 8.6 °F 12.0 °F 73% 30.36 in 10.0 mi East 9.2 mph - N/A   Overcast
9:55 PM 19.4 °F 9.5 °F 12.2 °F 74% 30.36 in 10.0 mi ESE 8.1 mph - N/A   Overcast
10:15 PM 19.2 °F 8.4 °F 12.0 °F 74% 30.36 in 10.0 mi ESE 9.2 mph - N/A   Overcast
10:35 PM 19.2 °F 9.3 °F 12.6 °F 75% 30.35 in 10.0 mi SE 8.1 mph - N/A   Overcast
10:55 PM 19.2 °F 9.3 °F 12.4 °F 75% 30.35 in 10.0 mi SE 8.1 mph - N/A   Overcast
11:15 PM 19.0 °F 8.2 °F 12.0 °F 74% 30.34 in 10.0 mi SE 9.2 mph - N/A   Overcast
11:35 PM 18.5 °F 9.3 °F 12.0 °F 76% 30.35 in 10.0 mi SSE 6.9 mph - N/A   Overcast
11:55 PM 18.1 °F 7.9 °F 10.8 °F 73% 30.35 in 10.0 mi SSE 8.1 mph - N/A   Overcast